OPS 4682 DEB, 38428

Orbit data source: Space-Track

OPS 4682 DEB, 38428 is space debris in LEO originally from a launch on Sat, 03 Apr 1965 UTC launched from the Air Force Western Test Range (AFWTR). Debris objects in space refer to the collection of defunct objects orbiting the Earth. Examples of debris include non-operational satellites, rocket bodies, and fragments generated from explosions, collisions, or faulty payload assembly.

Loading next visibility...
Identifier
38428, 1965-027EH
Orbit
LEO
Country
Flag of USUS
Related business
Manufacturer
Unknown
Mission
Spacecraft
Bus & Motor
Unknown
Mass
Unknown
Launch date (UTC)
1965-04-03 (61 years ago)
Launch vehicle
Unknown
Launch site
Air Force Western Test Range (AFWTR)
Object type
Payload
Rocket body
Debris
Shape & HBR
Unknown shape, 0.1 m
Radar Cross Section
Medium (>0.1 m² and <1 m²)

Expand to show TLE details & history
Last TLE update: 1 day ago

TLE from 1 day ago
0 OPS 4682 DEB
1 38428U 65027EH  26207.29677561  .00000552  00000-0  18684-2 0  9996
2 38428  90.2498  14.2502 0042225 315.8873  43.8882 12.97511443602988
Epoch: 2026-07-26T07:07Z
TLE epoch observation values (Epoch: 2026-07-26T07:07:21.412Z)
Latitude
-0.00006°
Longitude
-36.58575°
Altitude
1,251.514 km
Speed
7.24 km/s
True Right ascension
00h 57m 00s
True Declination
0° 00' 00"
Sunlit
Object was in daylight at epoch
Visualization orbit readout
Latitude
Unknown
Longitude
Unknown
Altitude
Unknown
Speed
Unknown
Apparent Right ascension
Unknown
Apparent Declination
Unknown
Sunlit
N/A
Visualization observer readout
Local Sidereal Time
00:02:08
Azimuth
Unknown
Elevation
Unknown
Doppler factor
Unknown
Orbital elements
Apogee altitude
1,301.273 km
Perigee altitude
1,236.693 km
Semi-major axis
7,647.12 km
Eccentricity
0.00422
Inclination
90.2498°
RAAN
14.2502°
Arg. of periapsis
315.8873°
True anomaly
44.22492°
Mean anomaly
43.8882°
Eccentric anomaly
44.05643°
Mean motion
3.24561 °/min
Orbital period
110.92 mins
BSTAR
0.0018684
Loading maneuver chart data...
Computing Atmospheric mass density...
Loading historical data...
Loading historical data...
Loading historical data...
Loading historical data...
Loading historical data...
Loading historical data...
Loading historical data...

Documentation

Showing up to 5 results
|